[[{"header":{"parameterUnit":"m.s-1","parameterCategory":1,"la1":30.2991,"la2":30.254,"lo1":-89.0895,"lo2":-89.0444,"dy":0.0017,"dx":0.0017,"nx":28,"ny":28,"refTime":"2023-11-02T03:00:00:Z","depth":0,"parameterNumber":2,"parameterNumberName":"U-component_of_WINDS"},"data":[0,0,0,0,0,0,0,0,0,0,0,0,0,0,0,0,0,0,0,0,0,0,0,0,0,0,0,0,0,0,0,0,0,0,0,0,0,0,0,0,0,0,0,0,0,0,0,0,0,0,0,0,0,0,0,0,0,0,-4.354,-4.3541,0,-4.3642,-4.3644,-4.3645,-4.3469,-4.3463,-4.3457,-4.3451,-4.356,-4.3568,-4.3576,0,0,0,0,0,0,0,0,0,0,0,0,0,-4.3195,-4.3203,-4.354,-4.3542,-4.3543,-4.3642,-4.3644,-4.3645,-4.347,-4.3463,-4.3456,-4.3449,-4.3557,-4.3567,-4.3577,0,0,0,0,0,0,0,0,0,0,0,0,0,-4.3326,-4.3205,-4.354,-4.3467,-4.3462,-4.3642,-4.3644,-4.3645,-4.3472,-4.3463,-4.3454,-4.3445,-4.3554,-4.3566,-4.3579,-4.3836,0,0,-4.3617,-4.3623,0,0,0,0,0,0,0,0,-4.3319,-4.3339,-4.3477,-4.3473,-4.3467,-4.3534,-4.3562,-4.3709,-4.3474,-4.3468,-4.3451,-4.3441,-4.3559,-4.357,-4.3609,-4.3841,-4.3845,-4.3618,-4.3626,-4.3631,-4.3635,0,0,0,0,0,0,0,-4.331,-4.3334,-4.3581,-4.3479,-4.3473,-4.343,-4.3439,-4.3589,-4.3562,-4.3468,-4.3455,-4.347,-4.3554,-4.3598,-4.3611,-4.3847,-4.3618,-4.3629,-4.3637,-4.3642,-4.4294,-4.4303,0,0,0,0,0,0,-4.331,-4.3328,-4.3577,-4.3584,-4.3369,-4.3444,-4.3453,-4.3521,-4.356,-4.3557,-4.3477,-4.3461,-4.358,-4.3596,-4.3614,-4.3918,-4.3631,-4.3643,-4.3651,-4.4285,-4.4296,-4.4307,0,0,0,0,0,0,-4.3303,-4.3334,-4.3573,-4.3452,-4.3479,-4.3459,-4.3537,-4.3528,-4.3571,-4.3567,-4.3562,-4.3526,-4.3574,-4.3596,-4.3781,-4.3919,-4.3649,-4.366,-4.4273,-4.4288,-4.4302,-4.4529,0,0,0,0,0,0,-4.3294,-4.3333,-4.343,-4.3456,-4.3487,-4.374,-4.3545,-4.3537,-4.3593,-4.3573,-4.3612,-4.361,-4.3569,-4.3764,-4.3794,-4.3932,-4.367,-4.4261,-4.428,-4.4297,-4.4509,-4.4549,-4.4584,0,0,0,0,0,-4.3282,-4.349,-4.3436,-4.3467,-4.3608,-4.3748,-4.3766,-4.3713,-4.3605,-4.3703,-4.37,-4.3608,-4.3898,-4.3784,-4.3817,-4.3961,-4.4252,-4.4274,-4.4296,-4.4492,-4.4541,-4.4583,0,0,0,0,0,0,-4.3483,-4.3493,-4.3432,-4.3654,-4.3702,-4.3718,-4.384,-4.3767,-4.3847,-4.3825,-4.3757,-4.3767,-4.3967,-4.3981,-4.3854,-4.4211,-4.4057,-4.4087,-4.4195,-4.4242,-4.4279,-4.4273,-4.3681,0,0,0,0,0,-4.3552,-4.3665,-4.3667,-4.3863,-4.389,-4.3862,-4.3921,-4.3876,-4.3922,-4.3942,-4.3952,-4.4002,-4.4104,-4.4173,-4.4267,-4.4509,-4.4516,-4.4624,-4.4661,-4.4692,-4.472,-4.4849,-4.4898,-4.4379,-4.4379,-4.4378,0,0,-4.3699,-4.3718,-4.3793,-4.3904,-4.3935,-4.4054,-4.388,-4.4013,-4.4101,-4.3962,-4.4139,-4.4148,-4.4199,-4.4414,-4.4509,-4.4432,-4.4864,-4.472,-4.4744,-4.4755,-4.4877,-4.4926,-4.497,-4.4394,-4.4391,-4.4389,0,0,-4.4026,-4.4051,-4.4218,-4.4252,-4.4301,-4.428,-4.432,-4.4347,-4.4348,-4.4523,-4.4422,-4.4525,-4.4703,-4.4743,-4.4787,-4.5128,-4.5048,-4.516,-4.5358,-4.5485,-4.5526,-4.5562,-4.5686,-4.5731,-4.5187,-4.5187,-4.5188,0,-4.4202,-4.4377,-4.4313,-4.4453,-4.4506,-4.4383,-4.4552,-4.4588,-4.4667,-4.4706,-4.4617,-4.4837,-4.4862,-4.5086,-4.5169,-4.5208,-4.5253,-4.5157,-4.5525,-4.5561,-4.5593,-4.5711,-4.5757,-4.5201,-4.5199,-4.5198,-4.5197,0,-4.4591,-4.4714,-4.4842,-4.492,-4.4986,-4.514,-4.51,-4.5175,-4.5123,-4.5112,-4.5292,-4.5318,-4.5415,-4.5464,-4.5416,-4.5681,-4.5632,-4.5536,-4.538,-4.5657,-4.5767,-4.5811,-4.522,-4.5216,-4.5211,-4.5208,0,0,-4.5052,-4.509,-4.5138,-4.5172,-4.5216,-4.531,-4.5458,-4.5551,-4.5618,-4.5674,-4.5798,-4.595,-4.586,-4.591,-4.5865,-4.5977,-4.6247,-4.5866,-4.5866,-4.5939,-4.6544,-4.6618,-4.6671,-4.6192,-4.62,-4.6207,-4.654,0,-4.5379,-4.5634,-4.558,-4.5831,-4.5944,-4.5828,-4.5957,-4.5999,-4.5992,-4.6087,-4.6078,-4.6188,-4.6061,-4.609,-4.6195,-4.6192,-4.6368,-4.6167,-4.6309,-4.6315,-4.6304,-4.6728,-4.6808,-4.7121,-4.6582,-4.6589,-4.6594,0,-4.5796,-4.5868,-4.613,-4.6155,-4.6201,-4.6318,-4.6399,-4.6491,-4.6535,-4.6522,-4.6577,-4.651,-4.6658,-4.6497,-4.6701,-4.6565,-4.6619,-4.6627,-4.6637,-4.6652,-4.6474,-4.6757,-4.7219,-4.7268,-4.6661,-4.6655,-4.6651,0,-4.6109,-4.6271,-4.6448,-4.648,-4.6514,-4.6599,-4.6617,-4.6652,-4.6712,-4.6782,-4.682,-4.6908,-4.6957,-4.7027,-4.6985,-4.6872,-4.7197,-4.7033,-4.7192,-4.7194,-4.7269,-4.7266,-4.775,-4.7299,-4.7298,-4.7298,-4.7297,0,-4.6483,-4.6648,-4.6589,-4.67,-4.6881,-4.6817,-4.6999,-4.7003,-4.7036,-4.7145,-4.7049,-4.7154,-4.7091,-4.7191,-4.7159,-4.7334,-4.7356,-4.7351,-4.7341,-4.7361,-4.7363,-4.7399,-4.7377,-4.731,-4.7307,-4.7305,-4.7303,0,-4.6865,-4.6832,-4.7018,-4.7033,-4.7041,-4.7175,-4.7188,-4.7291,-4.7275,-4.7415,-4.7443,-4.742,-4.7532,-4.7497,-4.7618,-4.7596,-4.7819,-4.778,-4.7805,-4.7796,-4.7958,-4.7945,-4.8486,-4.8555,-4.8057,-4.8061,-4.8065,0,-4.7107,-4.7232,-4.726,-4.7325,-4.735,-4.7457,-4.7517,-4.7457,-4.7524,-4.7583,-4.7679,-4.7782,-4.7863,-4.8048,-4.8043,-4.8135,-4.8099,-4.8282,-4.8113,-4.813,-4.8105,-4.81,-4.8113,-4.8318,-4.8323,-4.8328,-4.8332,0,-4.7542,-4.7518,-4.7608,-4.7692,-4.7766,-4.7829,-4.7884,-4.7944,-4.7887,-4.7967,-4.808,-4.8142,-4.8265,-4.837,-4.8454,-4.8472,-4.8395,-4.8384,-4.8427,-4.8451,-4.8461,-4.846,-4.79,-4.8373,-4.8369,-4.8366,-4.8364,-4.8362,-4.7863,-4.7968,-4.8005,-4.8107,-4.8142,-4.8195,-4.8292,-4.8288,-4.8381,-4.8476,-4.8434,-4.8566,-4.8606,-4.871,-4.874,-4.8842,-4.8772,-4.8833,-4.8848,-4.8865,-4.8887,-4.8442,-4.8857,-4.8855,-4.8854,-4.8853,-4.8852,0,-4.8295,-4.8311,-4.8406,-4.8485,-4.8567,-4.8482,-4.8538,-4.8612,-4.8729,-4.8772,-4.8852,-4.8983,-4.9083,-4.9085,-4.9179,-4.9261,-4.9227,-4.9288,-4.9283,-4.9289,-4.8943,-4.8899,-4.9313,-4.9313,-4.9313,-4.9313,-4.9313,-4.9313,-4.8529,-4.8703,-4.8685,-4.8875,-4.889,-4.9017,-4.9057,-4.9106,-4.914,-4.929,-4.9372,-4.9371,-4.9398,-4.9493,-4.9582,-4.958,-4.9621,-4.9696,-4.9681,-4.9359,-4.9313,-4.927,-4.9227,-4.9704,-4.9705,-5.0017,-5.002,-5.0023]},{"header":{"parameterUnit":"m.s-1","parameterCategory":1,"la1":30.2991,"la2":30.254,"lo1":-89.0895,"lo2":-89.0444,"dy":0.0017,"dx":0.0017,"nx":28,"ny":28,"refTime":"2023-11-02T03:00:00:Z","depth":0,"parameterNumber":3,"parameterNumberName":"V-component_of_WINDS"},"data":[0,0,0,0,0,0,0,0,0,0,0,0,0,0,0,0,0,0,0,0,0,0,0,0,0,0,0,0,0,0,0,0,0,0,0,0,0,0,0,0,0,0,0,0,0,0,0,0,0,0,0,0,0,0,0,0,0,0,-4.523,-4.523,0,-4.5263,-4.5263,-4.5264,-4.5216,-4.5214,-4.5212,-4.5211,-4.5243,-4.5245,-4.5248,0,0,0,0,0,0,0,0,0,0,0,0,0,-4.5119,-4.5122,-4.5229,-4.523,-4.523,-4.5263,-4.5264,-4.5264,-4.5216,-4.5214,-4.5212,-4.521,-4.5242,-4.5245,-4.5248,0,0,0,0,0,0,0,0,0,0,0,0,0,-4.5161,-4.5122,-4.5229,-4.521,-4.5209,-4.5263,-4.5264,-4.5264,-4.5216,-4.5214,-4.5211,-4.5209,-4.5241,-4.5245,-4.5248,-4.5322,0,0,-4.5259,-4.5261,0,0,0,0,0,0,0,0,-4.5159,-4.5166,-4.5213,-4.5212,-4.521,-4.5233,-4.5236,-4.5283,-4.5217,-4.5214,-4.5211,-4.5208,-4.5241,-4.5245,-4.5257,-4.5323,-4.5325,-4.526,-4.5262,-4.5264,-4.5265,0,0,0,0,0,0,0,-4.5156,-4.5164,-4.5243,-4.5213,-4.5212,-4.5199,-4.5202,-4.5245,-4.5241,-4.5214,-4.521,-4.5215,-4.524,-4.5253,-4.5257,-4.5325,-4.526,-4.5263,-4.5265,-4.5267,-4.5449,-4.5452,0,0,0,0,0,0,-4.5156,-4.5162,-4.5242,-4.5244,-4.5178,-4.5203,-4.5206,-4.5228,-4.5241,-4.524,-4.5217,-4.5213,-4.5248,-4.5253,-4.5258,-4.5342,-4.5264,-4.5267,-4.5269,-4.5447,-4.545,-4.5453,0,0,0,0,0,0,-4.5154,-4.5164,-4.524,-4.5202,-4.5211,-4.5207,-4.5232,-4.523,-4.5243,-4.5243,-4.5242,-4.5231,-4.5246,-4.5253,-4.5305,-4.5342,-4.5269,-4.5272,-4.5444,-4.5448,-4.5451,-4.5512,0,0,0,0,0,0,-4.5151,-4.5163,-4.5192,-4.5203,-4.5213,-4.5289,-4.5235,-4.5232,-4.525,-4.5244,-4.5256,-4.5256,-4.5245,-4.53,-4.5309,-4.5346,-4.5275,-4.544,-4.5445,-4.545,-4.5506,-4.5517,-4.5527,0,0,0,0,0,-4.5147,-4.5209,-4.5194,-4.5204,-4.5249,-4.5291,-4.5296,-4.5283,-4.5253,-4.5281,-4.5281,-4.5256,-4.5337,-4.5306,-4.5316,-4.5354,-4.5438,-4.5444,-4.545,-4.5502,-4.5515,-4.5526,0,0,0,0,0,0,-4.5203,-4.521,-4.5194,-4.5261,-4.5276,-4.5283,-4.5318,-4.5298,-4.5322,-4.5315,-4.5297,-4.53,-4.5356,-4.5361,-4.5326,-4.5424,-4.5382,-4.539,-4.5419,-4.5431,-4.5441,-4.5438,-4.5278,0,0,0,0,0,-4.5223,-4.5257,-4.5261,-4.5319,-4.5328,-4.5322,-4.5339,-4.5328,-4.5342,-4.5348,-4.5352,-4.5366,-4.5394,-4.5413,-4.544,-4.5507,-4.5507,-4.5538,-4.5548,-4.5557,-4.5563,-4.5595,-4.5608,-4.5473,-4.5472,-4.5472,0,0,-4.5264,-4.5272,-4.5295,-4.5331,-4.5341,-4.5374,-4.5327,-4.5366,-4.539,-4.5354,-4.5403,-4.5406,-4.542,-4.548,-4.5506,-4.5485,-4.5601,-4.5564,-4.5571,-4.5573,-4.5603,-4.5616,-4.5627,-4.5477,-4.5476,-4.5475,0,0,-4.5357,-4.5368,-4.5416,-4.5426,-4.5442,-4.5437,-4.5449,-4.5459,-4.5459,-4.5508,-4.548,-4.5509,-4.5559,-4.5569,-4.5581,-4.5675,-4.5651,-4.5684,-4.5736,-4.5767,-4.5778,-4.5787,-4.5817,-4.5829,-4.5691,-4.5691,-4.5691,0,-4.5406,-4.5457,-4.5443,-4.5482,-4.5497,-4.5466,-4.5512,-4.5523,-4.5547,-4.5557,-4.5534,-4.5594,-4.5602,-4.5661,-4.5684,-4.5696,-4.5706,-4.5681,-4.5778,-4.5787,-4.5795,-4.5824,-4.5835,-4.5695,-4.5694,-4.5694,-4.5693,0,-4.5515,-4.5551,-4.5587,-4.561,-4.5629,-4.5672,-4.5663,-4.5684,-4.567,-4.5667,-4.5715,-4.5724,-4.5749,-4.5763,-4.5751,-4.582,-4.5806,-4.5781,-4.5738,-4.5812,-4.5838,-4.5849,-4.57,-4.5698,-4.5697,-4.5696,0,0,-4.5643,-4.5656,-4.5669,-4.5677,-4.5691,-4.5718,-4.5758,-4.5784,-4.58,-4.5817,-4.5849,-4.5891,-4.5867,-4.588,-4.5869,-4.5897,-4.5966,-4.5867,-4.5867,-4.5882,-4.6039,-4.6055,-4.6068,-4.5951,-4.5953,-4.5955,-4.6036,0,-4.5733,-4.5803,-4.579,-4.5857,-4.5888,-4.5857,-4.5892,-4.5903,-4.5901,-4.5926,-4.5923,-4.5952,-4.592,-4.5927,-4.5954,-4.5952,-4.5996,-4.5946,-4.5978,-4.5979,-4.5972,-4.6083,-4.6101,-4.6177,-4.6047,-4.6048,-4.605,0,-4.5846,-4.5866,-4.5937,-4.5942,-4.5954,-4.5986,-4.6006,-4.6031,-4.6042,-4.6039,-4.6053,-4.6035,-4.6073,-4.6031,-4.6082,-4.6048,-4.606,-4.6061,-4.6063,-4.6063,-4.6017,-4.6083,-4.6202,-4.6212,-4.6066,-4.6065,-4.6064,0,-4.5928,-4.5973,-4.6019,-4.6028,-4.6037,-4.6059,-4.6064,-4.6073,-4.6087,-4.6105,-4.6114,-4.6136,-4.6148,-4.6165,-4.6152,-4.6124,-4.6204,-4.6162,-4.6199,-4.6199,-4.6215,-4.6214,-4.6335,-4.6229,-4.6229,-4.6228,-4.6228,0,-4.6027,-4.6071,-4.6056,-4.6084,-4.6131,-4.6115,-4.6161,-4.6162,-4.617,-4.6196,-4.6172,-4.6198,-4.6181,-4.6205,-4.6196,-4.6237,-4.6243,-4.624,-4.6236,-4.624,-4.624,-4.6246,-4.6239,-4.6231,-4.6231,-4.623,-4.623,0,-4.6126,-4.6118,-4.6166,-4.617,-4.6172,-4.6206,-4.6208,-4.6234,-4.623,-4.6264,-4.6271,-4.6264,-4.629,-4.628,-4.6308,-4.6302,-4.6353,-4.6345,-4.6349,-4.6346,-4.6382,-4.6378,-4.6509,-4.6524,-4.6411,-4.6412,-4.6413,0,-4.6188,-4.6221,-4.6227,-4.6243,-4.6249,-4.6276,-4.629,-4.6275,-4.6291,-4.6305,-4.6328,-4.6352,-4.637,-4.6413,-4.641,-4.6431,-4.642,-4.6465,-4.6423,-4.6425,-4.6417,-4.6414,-4.6415,-4.6472,-4.6474,-4.6475,-4.6476,0,-4.6299,-4.6292,-4.6314,-4.6334,-4.6352,-4.6367,-4.638,-4.6395,-4.638,-4.6399,-4.6425,-4.6439,-4.6467,-4.649,-4.6508,-4.6511,-4.649,-4.6489,-4.6498,-4.6501,-4.6501,-4.6498,-4.6369,-4.6485,-4.6484,-4.6484,-4.6483,-4.6483,-4.6378,-4.6404,-4.6412,-4.6436,-4.6444,-4.6456,-4.6479,-4.6477,-4.6499,-4.652,-4.651,-4.6539,-4.6547,-4.6569,-4.6575,-4.6597,-4.6579,-4.6593,-4.6596,-4.6599,-4.6602,-4.65,-4.6601,-4.66,-4.66,-4.66,-4.66,0,-4.6484,-4.6487,-4.651,-4.6527,-4.6546,-4.6525,-4.6538,-4.6554,-4.658,-4.659,-4.6607,-4.6636,-4.6658,-4.6656,-4.6676,-4.6693,-4.6684,-4.6699,-4.6696,-4.6696,-4.6619,-4.6607,-4.6706,-4.6706,-4.6706,-4.6706,-4.6706,-4.6706,-4.6541,-4.6582,-4.6576,-4.662,-4.6623,-4.6651,-4.6659,-4.667,-4.6676,-4.6709,-4.6727,-4.6726,-4.6729,-4.6749,-4.6767,-4.6766,-4.6773,-4.6791,-4.6786,-4.6713,-4.6702,-4.6692,-4.6681,-4.6793,-4.6793,-4.6861,-4.6861,-4.6862]}]]